weather.gov     
National Weather Service

Terminal Aerodrome Forecast
NWS Homepage
This page is being discontinued on March 12, 2014.
The same data is available at this site. Please update your bookmarks.
Thank you, and we apologize for the inconvenience.
Please send an email to SR-SRH.Webmaster@noaa.gov with any concerns.


Current Version
Previous Version:    01  02  03  04  05  06  07  08  09  10  11  12  13  14  15  16  17  18  19  20  21  22  23  24  25  26  27  28  29  
[Printable]
753
FTUS41 KLWX 251700
TAFMRB
TAF
KMRB 251740Z 2518/2618 27010KT P6SM BKN200
     FM252200 27005KT P6SM BKN250
     FM260400 33004KT P6SM BKN250
     FM260900 36007KT P6SM -RASN OVC060
     FM261200 01006KT 2SM -SN OVC025
     FM261500 01006KT 1SM -SN OVC003=


U.S. Dept. of Commerce
NOAA National Weather Service
1325 East West Highway
Silver Spring, MD 20910
E-mail: w-nws.webmaster@noaa.gov
Page last modified: May 16, 2007
NATIONAL WEATHER SERVICE: for Safety, for Work, for Fun - FOR LIFE